Date String (YYYY-MM-DD hh:mm:ss) UTC,Instrument flags,Ambient pressure (hPa),Sample flow (lpm),Bypass flow (lpm),Sample temperature (°C),Ambient temperature (°C),ASC tube jacket temperature (°C),LED temperature (°C),Box temperature (°C),Sample RH (%),Span deviation,Mass concentration (μg/m³),Mass concentration (μg/m³),Mass concentration (μg/m³)
DateTimeUTC,F1_M11,P_M11,Q1_M11,Q2_M11,T1_M11,T2_M11,T3_M11,T4_M11,T5_M11,U1_M11,ZSPAN_M11,X0_M11,X2_M11,X1_M11
2021-11-20 00:00:00,,0823.7,4.98,0.00,27.5,26.5,00.0,36.6,29.2,09.8,0000.0,0007.15,0003.61,0003.26
2021-11-20 00:01:00,,0823.7,5.01,0.00,27.5,26.5,00.0,36.5,29.1,09.8,0000.0,0007.11,0003.63,0003.28
2021-11-20 00:02:00,,0823.6,5.00,0.00,27.5,26.5,00.0,36.5,29.2,09.8,0000.0,0007.16,0003.64,0003.30
2021-11-20 00:03:00,,0823.5,5.00,0.00,27.5,26.5,00.0,36.5,29.2,09.8,0000.0,0007.30,0003.63,0003.31
2021-11-20 00:04:00,,0823.3,5.00,0.00,27.5,26.5,00.0,36.5,29.2,09.9,0000.0,0007.77,0003.60,0003.31
2021-11-20 00:05:00,,0823.5,5.00,0.00,27.5,26.5,00.0,36.5,29.3,09.9,0000.0,0007.80,0003.58,0003.28
2021-11-20 00:06:00,,0823.6,5.00,0.00,27.5,26.5,00.0,36.5,29.3,09.9,0000.0,0007.60,0003.53,0003.23
2021-11-20 00:07:00,,0823.7,5.00,0.00,27.5,26.5,00.0,36.5,29.3,10.0,0000.0,0007.31,0003.51,0003.20
2021-11-20 00:08:00,,0823.7,5.00,0.00,27.5,26.5,00.0,36.5,29.3,10.1,0000.0,0007.18,0003.47,0003.17
2021-11-20 00:09:00,,0823.7,5.01,0.00,27.5,26.5,00.0,36.5,29.2,10.1,0000.0,0006.85,0003.42,0003.15
2021-11-20 00:10:00,,0823.7,5.00,0.00,27.5,26.5,00.0,36.5,29.2,10.2,0000.0,0005.87,0003.39,0003.13
2021-11-20 00:11:00,,0823.7,4.99,0.00,27.4,26.4,00.0,36.5,29.1,10.1,0000.0,0005.83,0003.38,0003.13
2021-11-20 00:12:00,,0823.7,5.00,0.00,27.4,26.4,00.0,36.5,29.1,10.2,0000.0,0005.82,0003.35,0003.10
2021-11-20 00:13:00,,0823.7,5.02,0.00,27.4,26.4,00.0,36.5,29.2,10.2,0000.0,0005.67,0003.32,0003.07
2021-11-20 00:14:00,,0823.7,4.99,0.00,27.4,26.4,00.0,36.5,29.1,10.3,0000.0,0005.60,0003.36,0003.05
2021-11-20 00:15:00,,0823.7,4.98,0.00,27.4,26.4,00.0,36.5,29.1,10.4,0000.0,0005.07,0003.41,0003.05
2021-11-20 00:16:00,,0823.8,5.01,0.00,27.4,26.4,00.0,36.5,29.1,10.4,0000.0,0005.09,0003.43,0003.10
2021-11-20 00:17:00,,0823.8,5.00,0.00,27.4,26.4,00.0,36.5,29.2,10.6,0000.0,0005.17,0003.46,0003.14
2021-11-20 00:18:00,,0823.8,5.00,0.00,27.4,26.4,00.0,36.4,29.1,10.6,0000.0,0005.37,0003.50,0003.16
2021-11-20 00:19:00,,0823.7,4.99,0.00,27.3,26.3,00.0,36.4,29.1,10.8,0000.0,0005.54,0003.55,0003.20
2021-11-20 00:20:00,,0823.9,5.01,0.00,27.3,26.3,00.0,36.4,29.1,10.9,0000.0,0005.75,0003.59,0003.22
2021-11-20 00:21:00,,0824.0,4.99,0.00,27.3,26.3,00.0,36.4,29.1,11.0,0000.0,0005.95,0003.63,0003.24
2021-11-20 00:22:00,,0824.0,4.99,0.00,27.3,26.3,00.0,36.4,29.1,11.0,0000.0,0006.16,0003.66,0003.26
2021-11-20 00:23:00,,0824.0,5.00,0.00,27.3,26.3,00.0,36.4,29.1,11.0,0000.0,0006.31,0003.71,0003.28
2021-11-20 00:24:00,,0824.0,5.01,0.00,27.3,26.3,00.0,36.4,29.1,11.0,0000.0,0006.43,0003.74,0003.29
2021-11-20 00:25:00,,0824.1,5.00,0.00,27.3,26.2,00.0,36.4,29.1,11.1,0000.0,0006.26,0003.73,0003.30
2021-11-20 00:26:00,,0824.2,5.00,0.00,27.3,26.2,00.0,36.3,29.1,11.2,0000.0,0006.83,0003.70,0003.33
2021-11-20 00:27:00,,0824.2,5.00,0.00,27.2,26.2,00.0,36.3,28.9,11.2,0000.0,0008.41,0003.72,0003.35
2021-11-20 00:28:00,,0824.2,5.00,0.00,27.2,26.2,00.0,36.3,28.8,11.3,0000.0,0008.89,0003.78,0003.38
2021-11-20 00:29:00,,0824.3,5.00,0.00,27.2,26.2,00.0,36.3,28.9,11.4,0000.0,0008.85,0003.80,0003.41
2021-11-20 00:30:00,,0824.3,5.00,0.00,27.2,26.2,00.0,36.3,28.8,11.5,0000.0,0008.89,0003.81,0003.42
2021-11-20 00:31:00,,0824.2,4.99,0.00,27.2,26.2,00.0,36.3,28.8,11.5,0000.0,0008.96,0003.85,0003.43
2021-11-20 00:32:00,,0824.3,4.99,0.00,27.2,26.2,00.0,36.3,28.8,11.6,0000.0,0009.30,0003.87,0003.45
2021-11-20 00:33:00,,0824.4,5.00,0.00,27.1,26.2,00.0,36.3,28.8,11.7,0000.0,0009.87,0003.91,0003.46
2021-11-20 00:34:00,,0824.4,4.99,0.00,27.1,26.2,00.0,36.2,28.8,11.7,0000.0,0010.26,0003.95,0003.49
2021-11-20 00:35:00,,0824.4,5.01,0.00,27.1,26.2,00.0,36.2,28.8,11.6,0000.0,0010.30,0003.98,0003.52
2021-11-20 00:36:00,,0824.4,4.99,0.00,27.2,26.2,00.0,36.2,28.8,11.6,0000.0,0010.32,0003.99,0003.54
2021-11-20 00:37:00,,0824.4,5.00,0.00,27.2,26.2,00.0,36.2,28.8,11.7,0000.0,0009.82,0004.01,0003.55
2021-11-20 00:38:00,,0824.4,5.00,0.00,27.2,26.2,00.0,36.2,28.9,11.7,0000.0,0008.49,0004.00,0003.57
2021-11-20 00:39:00,,0824.4,4.99,0.00,27.2,26.2,00.0,36.2,28.8,11.6,0000.0,0008.15,0004.00,0003.58
2021-11-20 00:40:00,,0824.4,5.00,0.00,27.2,26.3,00.0,36.2,28.9,11.6,0000.0,0008.29,0004.01,0003.59
2021-11-20 00:41:00,,0824.4,4.99,0.00,27.2,26.3,00.0,36.2,28.9,11.6,0000.0,0008.21,0003.98,0003.60
2021-11-20 00:42:00,,0824.3,5.01,0.00,27.2,26.3,00.0,36.2,28.9,11.5,0000.0,0008.10,0003.97,0003.60
2021-11-20 00:43:00,,0824.4,4.99,0.00,27.2,26.3,00.0,36.2,28.9,11.5,0000.0,0007.79,0003.97,0003.60
2021-11-20 00:44:00,,0824.2,5.02,0.00,27.2,26.3,00.0,36.2,28.9,11.5,0000.0,0007.12,0003.97,0003.61
2021-11-20 00:45:00,,0824.2,5.00,0.00,27.1,26.2,00.0,36.2,28.9,11.5,0000.0,0006.71,0003.94,0003.60
2021-11-20 00:46:00,,0824.1,5.00,0.00,27.1,26.2,00.0,36.2,28.8,11.5,0000.0,0006.68,0003.95,0003.60
2021-11-20 00:47:00,,0824.1,5.00,0.00,27.1,26.1,00.0,36.2,28.8,11.6,0000.0,0006.71,0003.96,0003.61
2021-11-20 00:48:00,,0824.1,5.01,0.00,27.0,26.1,00.0,36.2,28.7,11.6,0000.0,0006.84,0003.98,0003.61
2021-11-20 00:49:00,,0824.1,4.99,0.00,27.0,26.1,00.0,36.2,28.7,11.6,0000.0,0006.96,0004.01,0003.60
2021-11-20 00:50:00,,0824.0,5.00,0.00,26.9,26.0,00.0,36.1,28.7,11.6,0000.0,0006.74,0004.01,0003.59
2021-11-20 00:51:00,,0824.1,5.01,0.00,26.9,26.0,00.0,36.1,28.6,11.7,0000.0,0007.04,0004.03,0003.60
2021-11-20 00:52:00,,0824.1,5.00,0.00,26.9,26.0,00.0,36.1,28.5,11.7,0000.0,0007.44,0004.05,0003.61
2021-11-20 00:53:00,,0824.0,4.99,0.00,26.9,26.0,00.0,36.1,28.5,11.7,0000.0,0007.47,0004.04,0003.61
2021-11-20 00:54:00,,0824.1,5.01,0.00,26.8,26.0,00.0,36.1,28.5,11.7,0000.0,0007.68,0004.05,0003.61
2021-11-20 00:55:00,,0824.0,5.00,0.00,26.8,25.9,00.0,36.0,28.5,11.6,0000.0,0007.72,0004.04,0003.61
2021-11-20 00:56:00,,0823.9,4.99,0.00,26.8,25.9,00.0,36.0,28.5,11.4,0000.0,0007.60,0004.05,0003.61
2021-11-20 00:57:00,,0823.9,5.01,0.00,26.8,25.9,00.0,36.0,28.5,11.2,0000.0,0007.57,0004.02,0003.58
2021-11-20 00:58:00,,0823.9,5.01,0.00,26.8,25.8,00.0,36.0,28.5,11.2,0000.0,0007.54,0003.98,0003.55
2021-11-20 00:59:00,,0823.8,5.00,0.00,26.8,25.8,00.0,36.0,28.5,11.3,0000.0,0007.60,0003.96,0003.53
